[[{"header":{"parameterUnit":"m.s-1","parameterCategory":1,"la1":30.2991,"la2":30.254,"lo1":-89.0895,"lo2":-89.0444,"dy":0.0017,"dx":0.0017,"nx":28,"ny":28,"refTime":"2024-05-19T09:00:00:Z","depth":0,"parameterNumber":2,"parameterNumberName":"U-component_of_WINDS"},"data":[0,0,0,0,0,0,0,0,0,0,0,0,0,0,0,0,0,0,0,0,0,0,0,0,0,0,0,0,0,0,0,0,0,0,0,0,0,0,0,0,0,0,0,0,0,0,0,0,0,0,0,0,0,0,0,0,0,0,1.6816,1.6816,0,1.6894,1.6895,1.6896,1.6903,1.6902,1.6902,1.6901,1.6984,1.6987,1.699,0,0,0,0,0,0,0,0,0,0,0,0,0,1.6677,1.668,1.6816,1.6816,1.6817,1.6894,1.6895,1.6896,1.6903,1.6902,1.6901,1.69,1.6983,1.6986,1.699,0,0,0,0,0,0,0,0,0,0,0,0,0,1.6745,1.668,1.6815,1.683,1.6832,1.6894,1.6895,1.6896,1.6904,1.6902,1.6901,1.69,1.6982,1.6986,1.699,1.7043,0,0,1.7004,1.7006,0,0,0,0,0,0,0,0,1.6741,1.675,1.6827,1.6829,1.6832,1.6887,1.6876,1.6945,1.6904,1.6877,1.6901,1.6899,1.6953,1.696,1.6977,1.7046,1.705,1.7004,1.7007,1.7009,1.701,0,0,0,0,0,0,0,1.6736,1.6746,1.6847,1.6828,1.6831,1.6835,1.6843,1.689,1.6921,1.6879,1.688,1.6889,1.6954,1.6973,1.6979,1.7051,1.7004,1.7008,1.7011,1.7013,1.717,1.7172,0,0,0,0,0,0,1.6728,1.6742,1.6844,1.6849,1.6782,1.6838,1.6847,1.6871,1.692,1.6927,1.689,1.6889,1.6966,1.6974,1.6982,1.7048,1.7009,1.7013,1.7016,1.7169,1.7171,1.7172,0,0,0,0,0,0,1.6725,1.6737,1.6841,1.6796,1.6809,1.6842,1.6868,1.6873,1.6892,1.6928,1.6934,1.6903,1.6965,1.6976,1.7028,1.7051,1.7015,1.7019,1.7167,1.7169,1.7172,1.7179,0,0,0,0,0,0,1.6721,1.6736,1.6755,1.6796,1.6812,1.6884,1.687,1.6876,1.6899,1.6899,1.6942,1.6948,1.6965,1.7021,1.7032,1.7056,1.7023,1.7165,1.7168,1.7171,1.7177,1.7181,1.7185,0,0,0,0,0,1.6716,1.6754,1.6756,1.6768,1.6836,1.6885,1.6894,1.6912,1.6901,1.6921,1.6945,1.6947,1.7047,1.7026,1.7039,1.7065,1.7164,1.7167,1.7171,1.7175,1.718,1.7185,0,0,0,0,0,0,1.6714,1.6759,1.6762,1.6814,1.6846,1.6886,1.6912,1.6917,1.6953,1.6951,1.6972,1.6982,1.7034,1.7055,1.7031,1.7119,1.7104,1.711,1.7103,1.7109,1.7113,1.7106,1.7026,0,0,0,0,0,1.672,1.6755,1.6793,1.6835,1.6851,1.6879,1.6901,1.6912,1.6946,1.696,1.6987,1.7022,1.7061,1.7086,1.7124,1.718,1.7191,1.7205,1.7209,1.7212,1.7217,1.725,1.7257,1.7184,1.7184,1.7183,0,0,1.6732,1.6761,1.6782,1.6836,1.6862,1.6899,1.689,1.693,1.6958,1.6966,1.7017,1.7039,1.7079,1.7133,1.7159,1.7152,1.724,1.7216,1.7218,1.7222,1.7254,1.7261,1.7267,1.7186,1.7185,1.7185,0,0,1.6773,1.6798,1.6836,1.6863,1.6902,1.6921,1.6931,1.6971,1.6986,1.7037,1.7045,1.708,1.7147,1.7175,1.7198,1.7253,1.7257,1.7265,1.7286,1.7319,1.7324,1.733,1.735,1.7357,1.727,1.727,1.727,0,1.6783,1.6838,1.6856,1.6896,1.692,1.693,1.697,1.6995,1.7045,1.7063,1.7055,1.714,1.7168,1.723,1.7244,1.7262,1.7275,1.726,1.7322,1.7327,1.7333,1.7353,1.736,1.7271,1.7271,1.7271,1.7271,0,1.6849,1.6888,1.6915,1.6963,1.6991,1.703,1.7056,1.7083,1.7092,1.7112,1.7166,1.7199,1.7245,1.7261,1.727,1.7326,1.7321,1.7317,1.7303,1.734,1.7359,1.7367,1.7272,1.7272,1.7272,1.7271,0,0,1.6889,1.6948,1.6958,1.6981,1.7026,1.7057,1.7099,1.7143,1.7166,1.7201,1.7238,1.7295,1.7293,1.7319,1.7333,1.7361,1.7404,1.7354,1.7356,1.7363,1.7469,1.7471,1.748,1.7408,1.7409,1.741,1.7466,0,1.6936,1.7008,1.7027,1.709,1.7127,1.7138,1.7175,1.7208,1.7228,1.7264,1.7288,1.7329,1.7322,1.7338,1.7367,1.7393,1.7426,1.7389,1.7443,1.7445,1.7432,1.749,1.7492,1.7543,1.7474,1.7475,1.7476,0,1.6999,1.7035,1.7102,1.7144,1.7161,1.7193,1.7236,1.727,1.7309,1.7322,1.7353,1.7364,1.741,1.7394,1.7459,1.7433,1.7457,1.7474,1.7476,1.7481,1.7462,1.7497,1.7559,1.7567,1.7488,1.7487,1.7486,0,1.7022,1.7088,1.7137,1.7156,1.7207,1.723,1.7252,1.729,1.7316,1.7355,1.7372,1.7416,1.744,1.7475,1.7498,1.7484,1.7562,1.7547,1.7575,1.7575,1.759,1.7589,1.7657,1.7606,1.7606,1.7605,1.7605,0,1.7072,1.7112,1.7148,1.7178,1.7225,1.7247,1.7293,1.7316,1.735,1.7386,1.7399,1.7432,1.7461,1.75,1.7519,1.7571,1.7581,1.7595,1.7599,1.7593,1.7592,1.7609,1.7606,1.7607,1.7607,1.7607,1.7606,0,1.7105,1.7131,1.7185,1.7229,1.7241,1.7274,1.7312,1.7343,1.7365,1.7411,1.7423,1.7458,1.7504,1.7531,1.759,1.7603,1.766,1.7663,1.7647,1.7649,1.7676,1.7673,1.7757,1.777,1.771,1.771,1.7711,0,1.7135,1.7167,1.7215,1.7239,1.7262,1.7302,1.7329,1.7353,1.7381,1.7429,1.7455,1.7501,1.754,1.7614,1.7645,1.7691,1.7695,1.7722,1.7702,1.7696,1.7696,1.7694,1.7698,1.7725,1.7725,1.7726,1.7726,0,1.7186,1.7198,1.7235,1.7279,1.7311,1.7346,1.7381,1.7401,1.7432,1.7463,1.7511,1.7541,1.7601,1.7648,1.7696,1.7722,1.773,1.7732,1.7742,1.7736,1.7725,1.7732,1.7656,1.773,1.773,1.7729,1.7729,1.7729,1.7219,1.7248,1.7287,1.7329,1.7359,1.7392,1.7423,1.745,1.7489,1.7539,1.7552,1.7602,1.7643,1.7709,1.7735,1.7776,1.7772,1.7785,1.7788,1.7791,1.7792,1.7719,1.7785,1.7785,1.7785,1.7785,1.7785,0,1.7271,1.7297,1.7336,1.7385,1.7419,1.7424,1.7464,1.7492,1.7536,1.7573,1.7611,1.7666,1.7713,1.7749,1.7797,1.7823,1.7828,1.7835,1.7833,1.7839,1.7792,1.778,1.783,1.783,1.783,1.783,1.783,1.783,1.7302,1.7352,1.7369,1.7434,1.746,1.7509,1.7531,1.7563,1.7593,1.7654,1.7692,1.7715,1.7753,1.7804,1.7847,1.7857,1.7874,1.788,1.7891,1.7847,1.7842,1.7837,1.7826,1.7884,1.7884,1.7934,1.7934,1.7935]},{"header":{"parameterUnit":"m.s-1","parameterCategory":1,"la1":30.2991,"la2":30.254,"lo1":-89.0895,"lo2":-89.0444,"dy":0.0017,"dx":0.0017,"nx":28,"ny":28,"refTime":"2024-05-19T09:00:00:Z","depth":0,"parameterNumber":3,"parameterNumberName":"V-component_of_WINDS"},"data":[0,0,0,0,0,0,0,0,0,0,0,0,0,0,0,0,0,0,0,0,0,0,0,0,0,0,0,0,0,0,0,0,0,0,0,0,0,0,0,0,0,0,0,0,0,0,0,0,0,0,0,0,0,0,0,0,0,0,-1.7618,-1.7619,0,-1.7664,-1.7665,-1.7666,-1.7661,-1.766,-1.7659,-1.7659,-1.7704,-1.7706,-1.7708,0,0,0,0,0,0,0,0,0,0,0,0,0,-1.7524,-1.7526,-1.7618,-1.7619,-1.7619,-1.7664,-1.7665,-1.7666,-1.7661,-1.766,-1.7659,-1.7658,-1.7704,-1.7706,-1.7708,0,0,0,0,0,0,0,0,0,0,0,0,0,-1.7567,-1.7527,-1.7618,-1.7622,-1.7623,-1.7664,-1.7665,-1.7666,-1.7661,-1.766,-1.7659,-1.7658,-1.7703,-1.7706,-1.7709,-1.7748,0,0,-1.7717,-1.7719,0,0,0,0,0,0,0,0,-1.7565,-1.7571,-1.7621,-1.7622,-1.7623,-1.7656,-1.7649,-1.7693,-1.7661,-1.7647,-1.7658,-1.7657,-1.7689,-1.7693,-1.7704,-1.775,-1.7752,-1.7718,-1.7719,-1.7721,-1.7721,0,0,0,0,0,0,0,-1.7562,-1.7569,-1.7636,-1.7622,-1.7623,-1.7622,-1.7627,-1.7657,-1.7673,-1.7648,-1.7648,-1.7653,-1.7689,-1.7701,-1.7705,-1.7753,-1.7718,-1.772,-1.7722,-1.7723,-1.7834,-1.7835,0,0,0,0,0,0,-1.7558,-1.7566,-1.7635,-1.7638,-1.7591,-1.7624,-1.763,-1.7646,-1.7673,-1.7676,-1.7654,-1.7653,-1.7697,-1.7702,-1.7707,-1.7755,-1.7721,-1.7723,-1.7725,-1.7833,-1.7834,-1.7836,0,0,0,0,0,0,-1.7556,-1.7564,-1.7633,-1.7602,-1.7611,-1.7627,-1.7646,-1.7648,-1.766,-1.7678,-1.768,-1.7663,-1.7696,-1.7703,-1.7738,-1.7756,-1.7724,-1.7727,-1.7831,-1.7833,-1.7835,-1.7851,0,0,0,0,0,0,-1.7553,-1.7564,-1.7579,-1.7602,-1.7612,-1.7664,-1.7647,-1.7649,-1.7665,-1.7664,-1.7687,-1.769,-1.7696,-1.7734,-1.7741,-1.776,-1.7729,-1.783,-1.7832,-1.7834,-1.7849,-1.7853,-1.7857,0,0,0,0,0,-1.755,-1.7581,-1.758,-1.7588,-1.7632,-1.7665,-1.7671,-1.7677,-1.7666,-1.7682,-1.7693,-1.7689,-1.7753,-1.7737,-1.7745,-1.7765,-1.7829,-1.7831,-1.7834,-1.7847,-1.7853,-1.7857,0,0,0,0,0,0,-1.7559,-1.7584,-1.7583,-1.7623,-1.7642,-1.7664,-1.7684,-1.7683,-1.7705,-1.7703,-1.7709,-1.7715,-1.7751,-1.7761,-1.7743,-1.7805,-1.7789,-1.7794,-1.7797,-1.7802,-1.7806,-1.7802,-1.7732,0,0,0,0,0,-1.7565,-1.7591,-1.7611,-1.7644,-1.7654,-1.7667,-1.7682,-1.7686,-1.7705,-1.7713,-1.7728,-1.7747,-1.7771,-1.7787,-1.781,-1.7851,-1.7856,-1.7868,-1.7872,-1.7876,-1.7879,-1.7902,-1.7908,-1.7845,-1.7845,-1.7845,0,0,-1.7579,-1.7596,-1.7612,-1.7647,-1.7662,-1.7688,-1.7674,-1.7702,-1.7721,-1.7717,-1.7752,-1.7763,-1.7785,-1.7823,-1.784,-1.7833,-1.7898,-1.7879,-1.7881,-1.7884,-1.7905,-1.7911,-1.7917,-1.7847,-1.7846,-1.7846,0,0,-1.7617,-1.7633,-1.7662,-1.7678,-1.7702,-1.771,-1.7717,-1.774,-1.7748,-1.7783,-1.7781,-1.7803,-1.7845,-1.7861,-1.7874,-1.7919,-1.7916,-1.7927,-1.7947,-1.7969,-1.7974,-1.7979,-1.7995,-1.8001,-1.793,-1.793,-1.793,0,-1.7631,-1.767,-1.7677,-1.7706,-1.7721,-1.772,-1.775,-1.7764,-1.7794,-1.7805,-1.7796,-1.7849,-1.7864,-1.7906,-1.7917,-1.7928,-1.7936,-1.7924,-1.7973,-1.7978,-1.7982,-1.7997,-1.8004,-1.7932,-1.7931,-1.7931,-1.7931,0,-1.7687,-1.7714,-1.7735,-1.7764,-1.7782,-1.7811,-1.7822,-1.7839,-1.7841,-1.7851,-1.7887,-1.7904,-1.7931,-1.7941,-1.7943,-1.7984,-1.7979,-1.7972,-1.7956,-1.7989,-1.8004,-1.801,-1.7933,-1.7933,-1.7932,-1.7932,0,0,-1.7731,-1.7765,-1.7773,-1.7786,-1.7812,-1.7833,-1.7862,-1.7889,-1.7904,-1.7925,-1.7949,-1.7985,-1.7979,-1.7994,-1.7998,-1.8017,-1.8052,-1.8007,-1.8008,-1.8015,-1.8098,-1.8103,-1.811,-1.805,-1.8051,-1.8052,-1.8096,0,-1.7772,-1.7824,-1.7831,-1.7877,-1.7902,-1.7902,-1.7927,-1.7945,-1.7955,-1.7978,-1.7988,-1.8014,-1.8003,-1.8013,-1.8032,-1.8043,-1.8068,-1.804,-1.8073,-1.8074,-1.8067,-1.8118,-1.8123,-1.8164,-1.8102,-1.8103,-1.8104,0,-1.7827,-1.785,-1.7898,-1.7922,-1.7932,-1.7955,-1.7981,-1.8002,-1.8024,-1.8029,-1.8047,-1.8048,-1.8078,-1.8061,-1.8102,-1.8083,-1.8097,-1.8105,-1.8106,-1.811,-1.8091,-1.8123,-1.8177,-1.8183,-1.8113,-1.8112,-1.8111,0,-1.7855,-1.7898,-1.7933,-1.7944,-1.7972,-1.7988,-1.8,-1.8021,-1.8037,-1.8059,-1.807,-1.8095,-1.8109,-1.8128,-1.8137,-1.8124,-1.8177,-1.8161,-1.8183,-1.8183,-1.8194,-1.8193,-1.8252,-1.8203,-1.8203,-1.8202,-1.8202,0,-1.7901,-1.793,-1.7946,-1.7967,-1.8,-1.8008,-1.8041,-1.8053,-1.8071,-1.8094,-1.8095,-1.8116,-1.8126,-1.8149,-1.8156,-1.8189,-1.8195,-1.8201,-1.8202,-1.8201,-1.82,-1.821,-1.8207,-1.8204,-1.8204,-1.8203,-1.8203,0,-1.7938,-1.795,-1.7987,-1.8011,-1.8017,-1.8041,-1.8061,-1.8081,-1.8091,-1.8121,-1.8128,-1.8143,-1.8171,-1.8181,-1.8214,-1.8219,-1.8257,-1.8256,-1.825,-1.8251,-1.8272,-1.827,-1.8339,-1.8349,-1.8293,-1.8293,-1.8294,0,-1.7966,-1.7989,-1.8015,-1.8031,-1.8044,-1.807,-1.8086,-1.8095,-1.8113,-1.8139,-1.8156,-1.8184,-1.8206,-1.825,-1.8264,-1.8289,-1.8289,-1.8312,-1.8293,-1.8291,-1.829,-1.8289,-1.8291,-1.8315,-1.8316,-1.8316,-1.8316,0,-1.8015,-1.802,-1.8044,-1.8071,-1.8091,-1.8112,-1.8132,-1.8145,-1.8157,-1.8176,-1.8205,-1.8222,-1.8257,-1.8284,-1.8311,-1.8323,-1.8322,-1.8322,-1.8329,-1.8328,-1.8324,-1.8326,-1.826,-1.8321,-1.832,-1.832,-1.832,-1.832,-1.8049,-1.8069,-1.8091,-1.8118,-1.8135,-1.8154,-1.8175,-1.8187,-1.8211,-1.8241,-1.8244,-1.8275,-1.8296,-1.8331,-1.8345,-1.8369,-1.8362,-1.8372,-1.8374,-1.8376,-1.8378,-1.832,-1.8373,-1.8373,-1.8373,-1.8373,-1.8373,0,-1.8098,-1.8112,-1.8137,-1.8166,-1.8188,-1.8185,-1.8208,-1.8226,-1.8253,-1.8273,-1.8295,-1.8328,-1.8355,-1.8371,-1.8398,-1.8414,-1.8414,-1.842,-1.8419,-1.8422,-1.8382,-1.8374,-1.842,-1.842,-1.842,-1.842,-1.842,-1.842,-1.8126,-1.8161,-1.8169,-1.8212,-1.8225,-1.8256,-1.8269,-1.8287,-1.8303,-1.834,-1.8362,-1.8373,-1.8391,-1.8419,-1.8444,-1.8448,-1.8458,-1.8465,-1.8468,-1.843,-1.8425,-1.8421,-1.8413,-1.8467,-1.8467,-1.8507,-1.8507,-1.8508]}]]